ECMWFFLT1_850_thetae_021.txt.gz
Theta_e
348 347 348 351 352 351 352 354 356 356 356 357 357 357 356 354 356 359 360 361 357 347 342 345 347 347 348 349 348 345 342 340 341 343 343 343 348 352 351 346 344 347 351 350 349 349 348 346 345 345 344 341 339 337 332 328 327 329 329 326 327 334 336
346 344 344 348 351 353 352 353 356 356 356 358 357 358 357 355 357 359 360 360 353 344 343 345 346 347 348 349 348 345 341 338 339 341 344 344 345 348 348 346 345 345 348 350 351 350 348 347 346 344 345 341 336 333 327 323 321 324 330 324 320 327 332
344 345 344 347 350 354 353 352 355 356 357 358 358 359 358 357 357 356 358 358 349 342 343 345 346 346 347 348 347 344 339 337 337 339 343 345 343 344 343 344 345 345 346 348 349 350 348 347 345 344 344 340 337 332 323 323 321 321 330 330 326 330 333
343 347 347 348 351 354 355 353 354 356 356 357 358 360 360 358 356 351 351 351 345 341 343 344 344 345 346 347 345 342 339 338 337 337 343 346 345 343 341 342 342 344 348 348 348 350 347 343 343 343 340 335 336 335 325 327 331 324 326 331 332 335 336
341 346 348 350 352 354 355 354 354 356 355 356 358 360 361 359 356 351 347 346 342 341 342 343 344 344 345 346 344 341 339 338 338 339 343 346 347 344 339 339 340 343 348 347 347 349 343 336 338 339 333 325 332 336 327 329 337 334 330 329 329 333 336
339 345 348 350 352 355 356 355 355 356 355 355 357 360 361 360 357 355 352 347 343 343 342 342 345 345 345 345 343 341 340 339 338 339 342 345 347 345 339 339 340 341 348 348 347 347 339 331 331 331 326 320 324 330 327 328 335 334 330 326 323 328 334
337 343 348 350 351 354 356 356 356 356 355 354 355 359 360 359 358 357 356 352 347 347 346 344 347 348 345 344 343 342 341 339 337 338 342 345 345 344 341 342 341 339 345 347 345 343 337 330 328 327 325 321 320 323 323 324 327 325 322 322 321 324 329
337 340 348 352 351 351 355 357 357 357 356 353 352 357 358 358 356 355 356 356 352 352 352 351 353 350 344 342 342 342 340 340 339 338 342 345 345 342 340 342 343 340 342 342 338 336 334 329 326 324 322 321 320 320 320 321 321 319 321 322 321 322 327
335 339 348 352 349 348 352 356 357 357 357 354 351 355 358 355 352 351 353 355 355 354 354 354 356 354 347 340 341 342 339 339 340 339 342 346 345 341 343 346 345 339 337 335 333 333 332 328 325 323 320 318 318 319 320 322 321 320 321 321 320 320 326
337 340 349 353 347 345 349 354 358 357 357 356 351 354 357 354 350 349 350 352 353 353 353 352 355 358 352 341 339 342 340 338 340 341 343 347 346 343 345 349 346 336 332 333 332 332 330 328 327 325 321 319 318 319 320 322 322 322 322 321 320 320 322
335 338 349 354 350 348 349 352 357 357 357 357 354 354 357 354 349 348 349 351 352 352 353 352 352 358 358 348 342 341 340 340 340 342 346 350 350 344 339 341 340 333 330 331 331 332 332 331 331 329 324 319 317 319 321 322 324 325 324 322 320 320 321
338 340 350 356 352 350 351 351 355 357 357 358 356 355 358 356 351 349 349 351 352 351 353 353 351 355 360 360 354 346 339 339 340 341 345 350 351 344 336 338 339 335 331 329 328 332 334 334 334 331 327 321 317 319 321 322 326 327 325 322 322 322 322
348 350 355 358 354 350 352 352 353 357 357 359 360 359 360 359 354 351 351 351 351 351 353 354 353 353 358 363 364 355 343 338 338 339 341 345 346 343 339 339 339 338 336 332 328 328 331 333 333 333 331 324 318 318 320 323 328 328 325 324 325 325 322
353 358 359 357 355 352 354 353 354 358 360 361 362 361 360 361 358 354 353 353 353 351 352 355 355 354 356 361 366 363 351 340 338 339 341 342 342 341 340 339 337 338 341 339 334 330 330 329 329 332 334 329 321 317 318 323 327 327 326 327 327 325 322
349 355 358 358 356 354 355 356 358 361 362 362 363 362 362 361 359 358 357 357 355 351 351 354 356 357 358 361 366 364 355 346 345 347 346 345 342 341 342 343 339 337 339 341 339 336 334 331 330 334 336 332 324 318 317 322 326 326 328 329 328 325 323
338 341 350 357 359 358 357 359 361 362 363 364 362 361 362 361 360 360 359 359 358 354 351 354 358 359 359 362 364 362 356 353 355 355 351 347 343 343 344 344 343 342 340 340 340 341 340 337 336 338 337 335 330 321 317 321 324 325 328 330 328 326 325
334 333 337 344 353 360 360 361 365 366 364 364 362 362 363 362 361 361 360 360 359 356 354 355 359 361 360 362 363 360 357 357 358 357 353 349 346 346 346 345 347 348 345 341 340 341 343 341 340 340 339 338 336 326 319 319 322 324 327 329 329 327 325
333 332 335 334 341 356 362 362 365 365 363 363 363 363 361 360 361 360 359 360 360 358 356 358 363 362 360 361 361 359 358 358 358 356 353 351 349 347 348 348 349 350 348 345 342 342 343 342 341 340 339 340 339 331 321 319 322 324 326 329 329 326 326
334 331 336 333 336 354 364 362 359 360 363 363 362 362 360 358 357 356 358 361 360 359 357 360 364 362 359 360 360 358 357 357 357 354 352 351 351 350 351 350 350 350 349 348 345 344 343 342 341 341 340 341 341 332 321 320 324 325 326 329 330 326 325
334 332 334 332 335 351 361 359 358 363 366 365 362 362 362 360 356 352 356 361 361 359 358 360 364 361 358 358 357 356 356 355 354 353 351 351 351 351 352 351 351 352 350 349 348 345 344 342 341 341 341 341 340 331 322 323 325 324 325 329 330 327 324
333 334 334 332 332 341 353 358 361 366 368 364 361 362 362 361 356 351 355 360 362 361 359 361 363 361 357 356 355 354 353 352 353 353 352 353 352 350 350 351 351 352 351 351 349 347 346 344 342 341 341 340 339 332 324 323 325 325 326 329 330 328 324
333 335 333 333 334 337 348 358 360 363 365 363 361 361 360 359 357 354 356 362 363 363 362 363 365 363 357 353 352 351 350 349 351 351 353 355 354 349 349 350 351 352 352 351 350 349 349 347 344 342 341 339 338 333 326 324 328 330 331 331 331 329 325
332 334 331 333 335 335 345 357 360 361 364 363 360 359 360 361 360 358 359 362 364 364 364 365 365 362 356 350 348 348 347 347 348 347 351 354 353 349 350 350 350 351 352 351 351 350 350 349 347 345 342 339 337 333 327 326 330 334 334 333 333 331 327
330 331 331 332 336 344 352 358 359 360 361 362 359 359 362 362 361 360 362 364 364 364 365 364 362 358 352 346 344 345 344 345 345 345 348 351 352 352 352 351 350 350 350 350 350 349 348 348 347 345 342 338 336 333 328 327 331 334 335 334 334 333 329
332 332 332 332 341 355 362 359 356 360 361 360 361 362 361 361 362 362 362 364 364 363 363 361 357 351 345 344 343 342 343 343 343 344 345 348 352 355 354 352 351 350 350 350 349 348 348 346 344 343 342 339 336 334 332 332 334 335 336 335 335 335 331
335 334 335 338 348 360 361 352 351 359 361 359 361 363 361 361 361 359 359 363 364 362 360 357 350 345 345 347 344 340 340 341 340 343 345 345 350 354 354 352 350 350 349 349 348 346 345 344 341 342 343 341 339 336 334 334 335 335 336 335 334 334 332
339 338 338 343 351 359 357 351 353 359 360 360 362 362 360 360 360 358 359 361 362 362 360 357 352 348 348 347 341 337 338 339 339 342 343 344 349 352 353 351 349 348 347 347 346 345 343 341 340 341 343 343 341 338 335 333 333 334 335 335 334 334 332
343 343 344 348 353 358 358 357 358 359 360 362 361 359 358 360 361 360 360 362 363 364 363 359 352 346 343 340 337 337 338 338 340 342 343 346 351 353 351 350 349 348 347 345 343 342 341 340 340 340 342 342 340 339 337 335 335 335 336 336 335 333 330
347 350 353 353 354 357 357 357 357 358 359 359 357 359 364 364 362 361 363 365 364 361 356 348 341 337 337 336 336 337 338 338 340 342 343 347 351 352 351 350 349 348 346 344 343 341 340 340 340 340 340 340 338 338 337 336 336 336 337 337 335 331 328
355 357 357 355 355 357 357 357 358 360 361 361 364 367 367 362 357 356 359 359 354 347 341 336 334 335 336 336 336 337 338 339 340 342 344 347 350 351 351 349 347 347 346 344 342 341 341 341 340 340 340 340 339 338 338 337 337 337 336 334 330 326 325
354 355 354 354 356 359 359 361 362 363 363 364 365 364 359 349 342 342 343 340 337 335 335 334 335 336 336 336 336 337 337 339 340 342 345 348 349 350 349 347 346 346 345 343 342 341 341 341 341 341 341 340 339 339 339 338 337 336 334 331 328 325 325
352 353 354 356 357 358 359 360 360 359 357 354 350 347 342 336 333 333 332 333 333 333 334 334 335 336 336 336 338 341 343 343 341 343 346 348 349 349 348 347 346 345 344 343 342 341 341 341 342 342 341 341 340 340 339 338 336 333 331 331 330 327 326
349 350 352 352 352 351 352 352 350 346 343 339 336 335 333 332 332 332 331 332 332 332 333 333 332 332 334 338 343 348 350 348 345 346 349 349 348 348 347 346 345 343 343 342 342 342 342 342 342 341 341 341 340 339 338 337 335 332 330 329 328 327 326
352 352 351 349 349 347 344 340 336 332 331 331 331 329 328 329 330 329 330 330 330 330 331 330 331 333 336 341 346 348 348 347 347 348 349 348 346 346 345 345 343 342 342 342 342 342 342 342 341 341 341 340 338 337 337 337 334 332 330 329 328 327 326
348 351 351 350 349 347 345 340 336 335 338 341 339 336 335 334 331 331 334 333 331 331 332 333 338 342 344 345 346 346 346 346 347 347 346 346 345 344 344 344 343 342 342 341 341 341 341 341 341 340 340 339 337 336 336 335 333 331 329 327 326 325 323
343 345 347 346 342 339 338 337 338 340 344 346 345 343 344 344 343 346 347 340 332 331 333 337 344 349 349 348 347 346 345 346 345 345 345 344 343 343 344 343 342 341 341 340 340 339 339 340 340 339 337 337 336 336 335 333 331 328 326 325 324 323 323
344 344 346 345 341 335 330 329 328 330 332 333 332 334 341 345 346 346 343 335 329 330 333 339 347 350 349 347 346 345 346 345 344 344 344 343 342 342 342 342 341 341 340 340 339 337 337 339 339 337 336 337 335 333 332 329 326 324 323 324 324 325 325
343 344 345 344 339 331 327 325 324 323 325 325 326 330 336 338 339 341 338 331 329 331 335 343 349 349 346 345 345 345 345 345 344 344 343 342 341 341 340 340 340 339 339 339 336 332 333 336 337 335 335 335 332 327 326 324 323 323 324 325 325 326 326

ECMWFFLT1_850_thetae_024.txt.gz
Theta_e
348 348 347 346 348 349 349 350 353 353 354 356 356 356 358 358 359 361 361 360 360 360 359 357 353 347 343 343 343 342 343 344 343 342 344 344 345 346 343 343 347 349 347 343 342 340 338 340 343 344 343 339 336 333 330 326 324 325 326 329 336 336 333
346 346 346 345 346 348 349 349 351 353 355 358 357 356 357 357 358 360 360 361 361 360 359 357 353 347 342 342 344 345 346 346 344 343 343 343 344 344 344 345 347 349 350 346 341 338 337 340 341 342 343 340 335 329 325 322 321 322 321 320 325 326 325
344 344 344 345 346 348 350 349 349 352 354 357 357 357 356 357 358 358 359 360 361 361 360 357 353 347 343 343 345 347 348 347 345 344 343 342 341 343 346 349 348 347 347 344 342 341 342 343 342 342 344 343 337 331 325 321 318 318 319 318 319 320 319
343 345 346 346 346 348 351 350 350 353 356 357 358 357 357 357 357 357 358 359 360 360 360 358 354 347 343 343 345 348 350 349 347 344 342 340 341 341 344 348 348 345 343 343 344 346 346 346 344 343 344 340 335 331 324 319 318 317 319 319 319 319 319
346 345 345 345 345 347 351 351 351 354 357 357 357 357 357 357 357 357 357 357 359 359 358 358 356 348 342 343 345 347 349 349 348 345 341 340 340 341 342 344 344 344 342 343 345 346 347 348 346 344 341 336 331 329 323 318 317 318 318 320 320 319 320
348 346 344 345 343 345 349 350 351 353 356 358 358 358 359 358 357 358 357 358 360 361 360 359 355 347 342 344 345 346 348 351 351 346 342 340 340 340 342 341 342 342 341 342 345 346 345 346 345 342 338 333 330 326 322 319 318 318 319 320 320 320 320
345 345 343 343 343 344 347 348 350 352 355 357 358 358 359 359 358 358 358 359 361 363 361 358 353 346 342 343 345 345 348 352 353 348 344 343 341 339 340 340 341 341 339 341 343 345 344 342 341 340 336 332 329 325 320 318 318 318 320 320 321 322 321
341 343 342 342 344 344 345 347 351 353 354 355 357 359 359 360 359 357 358 361 363 365 363 359 352 345 343 344 345 346 347 352 354 350 347 347 345 341 338 339 340 340 338 340 341 342 343 341 338 338 336 331 329 325 320 318 319 318 320 321 321 322 321
339 341 342 343 344 344 343 346 348 350 351 351 354 357 359 360 360 357 359 361 363 364 365 361 354 348 345 345 346 346 347 352 353 350 347 348 347 343 339 339 340 337 336 337 340 341 341 339 337 337 336 333 330 325 321 318 319 318 320 322 322 321 321
339 341 342 343 345 345 344 345 346 347 348 348 349 353 359 361 361 360 360 361 362 364 364 362 359 356 351 346 347 348 349 351 352 350 348 347 345 341 338 339 337 333 333 335 340 343 341 339 337 337 337 335 332 327 322 319 318 319 321 323 323 322 321
341 343 343 345 346 346 345 346 347 348 349 350 350 353 358 361 362 362 360 360 361 362 363 361 360 361 356 350 351 351 350 350 350 350 348 345 343 339 337 339 339 335 333 334 340 343 341 339 339 339 338 337 334 328 323 321 319 318 321 324 324 323 322
344 343 343 345 346 345 345 346 347 348 348 350 353 355 358 360 362 362 360 359 360 359 360 359 358 360 360 357 356 354 350 348 348 348 346 344 346 343 338 341 344 342 336 333 338 341 341 340 340 340 340 338 336 331 326 322 319 318 321 323 325 326 325
345 344 344 348 346 344 344 345 346 348 349 353 356 356 357 359 361 362 360 358 357 356 357 357 356 357 360 362 360 357 352 348 344 343 343 345 348 348 344 344 346 347 344 339 338 339 340 341 341 340 340 339 338 334 329 325 321 319 320 322 325 328 326
343 344 348 351 349 345 346 345 345 347 349 354 358 357 357 358 359 360 359 357 355 354 354 355 355 354 357 361 362 359 355 348 340 338 340 343 348 350 350 348 347 349 351 348 345 343 341 341 342 341 341 341 339 337 333 329 324 320 319 321 325 329 327
345 348 355 357 354 350 348 349 350 349 349 354 359 359 357 357 357 359 358 355 352 352 353 353 354 353 353 357 361 362 358 350 343 339 339 343 347 348 349 350 349 350 352 351 351 350 348 345 343 343 343 342 341 339 336 332 328 323 320 320 323 328 327
342 346 354 356 355 352 348 347 351 353 355 358 360 359 357 356 357 358 356 353 350 350 351 352 352 352 352 354 358 361 360 355 351 347 343 345 346 344 345 348 350 351 351 350 350 351 351 350 347 345 345 344 343 341 339 336 332 327 323 320 322 326 327
336 338 343 346 351 353 347 343 347 351 355 360 361 360 358 356 357 357 356 352 350 349 350 351 352 352 352 353 356 359 360 358 357 354 351 349 346 345 345 346 348 350 350 350 350 351 351 351 350 349 347 345 344 342 341 338 334 331 326 321 321 325 327
337 336 337 343 351 354 349 344 344 346 349 354 358 360 359 358 358 358 356 353 350 350 350 351 352 352 352 354 356 358 359 358 359 360 358 355 351 349 349 349 350 351 351 352 352 352 351 350 350 350 348 347 345 344 342 340 337 335 330 323 320 324 327
337 335 337 343 349 352 352 350 346 343 343 347 354 358 358 359 360 359 359 355 351 351 350 351 353 353 352 353 355 358 359 359 361 362 361 360 357 355 354 354 354 353 354 354 353 352 351 350 350 349 348 347 347 346 344 342 340 338 334 325 320 323 327
337 335 336 341 346 350 354 355 351 345 343 345 348 352 355 358 361 361 360 358 354 352 352 352 354 354 354 354 355 358 360 361 362 363 363 364 362 360 358 356 356 355 355 355 354 353 352 350 350 350 348 348 347 346 345 344 342 341 338 329 321 321 326
336 336 334 336 343 348 350 352 353 350 348 346 348 353 357 359 360 361 361 360 358 356 354 353 354 355 355 355 357 359 361 362 364 366 366 365 364 362 360 358 357 357 356 355 354 353 353 352 351 350 349 348 347 346 346 344 342 341 339 334 324 320 324
335 336 336 334 338 343 345 347 350 350 349 351 353 356 359 361 361 362 363 361 360 359 358 355 355 357 358 358 359 362 363 364 366 367 366 365 363 361 359 358 358 356 355 354 354 354 354 353 352 351 350 349 347 346 345 344 342 341 340 338 329 321 323
333 333 335 335 333 337 342 345 350 352 352 355 357 356 356 360 363 364 363 361 361 361 360 357 357 359 360 361 362 363 364 365 366 366 365 363 361 359 358 358 356 354 354 353 353 353 353 352 352 351 350 349 348 347 345 343 342 341 341 340 333 324 324
332 331 332 334 333 335 341 342 347 355 356 355 356 356 355 360 364 364 362 362 362 361 361 361 362 362 362 363 364 364 366 366 365 364 363 361 359 357 355 353 352 352 353 353 353 354 353 352 352 351 350 349 347 346 345 344 343 342 341 339 332 325 325
331 330 330 332 331 333 341 340 340 350 357 356 356 357 356 358 363 365 362 362 363 362 362 362 363 364 365 365 366 366 365 365 364 362 360 358 356 354 351 349 350 351 352 353 354 354 352 351 351 349 348 347 345 344 344 342 341 340 338 334 330 328 328
331 331 330 331 331 331 339 343 341 348 357 358 355 355 356 357 363 365 362 362 363 362 362 363 365 367 367 367 367 367 365 363 361 359 357 355 353 351 350 349 349 349 350 352 353 353 351 351 350 348 347 345 343 343 342 341 340 339 337 334 332 332 332
336 335 332 332 331 329 334 344 347 350 355 355 351 353 357 359 362 363 362 362 363 363 362 364 367 368 368 368 367 365 363 361 358 355 352 351 349 349 349 347 345 344 345 348 349 350 350 350 349 348 346 344 343 342 341 340 339 338 337 334 332 333 333
338 338 340 340 340 340 344 351 354 357 359 356 351 354 359 361 363 363 362 362 365 366 365 366 368 369 369 367 366 364 362 358 353 349 347 346 347 349 348 345 341 337 339 344 346 347 348 348 348 347 345 343 342 341 340 339 338 337 337 335 334 334 335
339 340 347 355 356 355 358 360 360 362 363 359 356 358 361 363 363 362 362 365 366 367 367 368 369 369 368 366 364 363 360 351 344 342 342 343 347 349 346 343 343 341 342 344 346 347 347 347 346 345 344 342 341 340 339 338 337 337 337 336 336 335 335
350 345 348 358 360 358 360 361 359 358 360 360 361 362 363 364 364 363 364 367 368 368 369 369 369 369 367 364 360 356 350 344 344 347 345 344 347 348 347 347 347 346 345 345 346 347 346 345 344 343 342 341 341 340 339 339 338 338 337 336 335 334 335
357 353 352 356 359 359 360 359 356 356 359 362 363 364 365 365 364 365 366 367 367 369 370 369 368 366 361 356 353 351 349 350 353 351 347 345 346 345 346 349 348 346 347 347 346 346 345 343 342 341 341 341 341 340 340 340 340 339 337 336 336 335 336
349 348 347 349 354 358 359 356 355 359 363 364 364 364 366 365 364 366 368 368 369 370 369 367 364 359 354 353 354 354 352 350 348 345 344 345 346 346 348 350 348 347 348 348 347 346 345 343 342 342 341 341 341 341 341 341 340 339 338 337 337 336 334
350 351 350 352 355 357 357 356 360 365 368 369 368 368 367 366 366 367 368 369 369 367 364 360 356 351 350 351 350 348 346 342 341 344 346 347 349 350 350 349 348 348 348 347 346 345 344 343 343 343 342 342 342 342 341 341 340 340 338 338 337 334 329
354 356 356 358 359 359 359 361 364 367 369 369 369 369 369 368 368 368 367 366 363 358 351 346 343 342 342 341 340 341 341 341 343 346 348 349 350 351 350 349 349 348 347 346 344 343 343 342 342 343 343 343 342 342 342 341 340 339 338 337 335 330 325
354 354 355 356 355 355 357 360 361 362 363 363 365 365 364 363 362 360 357 354 349 343 338 335 335 336 337 338 340 342 342 344 346 347 348 349 350 349 349 348 348 347 345 344 343 342 343 343 343 343 343 343 342 341 341 340 339 337 336 334 331 328 326
354 354 355 355 353 351 352 353 354 354 353 354 356 356 354 354 354 349 342 338 337 334 333 334 335 337 338 340 342 343 344 347 348 348 347 348 348 348 348 347 346 345 344 343 342 343 343 343 343 343 342 342 341 340 340 339 338 336 334 333 331 329 329
351 353 354 354 353 352 351 350 349 349 348 347 347 347 347 350 351 346 336 332 333 332 331 333 337 341 344 345 345 345 346 348 348 347 347 346 346 346 346 346 345 343 342 342 342 342 342 341 341 341 341 340 339 338 337 338 337 335 333 331 330 329 329
346 348 350 351 350 349 349 349 349 349 350 351 351 352 353 355 354 350 342 334 332 335 337 340 344 347 349 348 347 345 345 346 347 346 345 345 345 345 345 345 344 342 342 342 341 340 340 339 339 340 339 337 336 336 335 335 335 333 331 329 328 327 327

ECMWFFLT1_850_thetae_030.txt.gz
Theta_e
342 343 342 343 344 345 345 346 347 348 348 349 349 349 350 350 350 351 351 350 350 350 351 351 352 351 351 351 350 347 343 339 338 337 337 338 339 341 342 342 343 343 344 345 343 341 340 340 339 336 336 338 334 330 331 333 334 330 325 325 328 328 330
342 343 343 343 344 344 345 345 346 347 347 348 349 349 350 351 350 351 351 351 351 351 351 351 351 351 351 351 351 349 345 341 339 338 337 339 339 341 342 342 343 342 343 344 343 342 341 341 338 336 337 338 334 330 330 332 333 329 326 326 327 325 326
341 343 344 344 344 344 345 345 345 347 346 347 348 348 349 350 350 351 351 351 351 351 351 351 351 351 351 351 351 351 348 343 340 339 338 338 339 340 342 342 342 342 342 344 343 342 342 341 338 336 337 337 334 331 330 331 332 330 326 326 325 322 323
341 343 343 344 345 344 345 345 345 346 346 346 347 347 348 349 349 351 350 351 351 351 351 351 351 351 351 351 351 351 350 346 342 340 339 339 339 340 341 342 342 342 342 343 343 343 342 341 338 336 337 338 337 333 330 330 331 329 325 324 323 320 320
343 342 343 343 345 345 345 345 344 345 346 346 346 347 347 348 349 351 350 351 351 350 351 351 351 352 351 351 351 351 350 348 344 342 341 341 340 341 342 342 342 342 342 342 344 344 343 342 339 335 336 339 339 335 331 330 329 326 323 321 321 319 318
343 343 343 343 344 345 345 345 345 346 346 346 347 347 348 349 349 350 350 350 351 351 351 351 351 352 352 352 352 352 351 350 347 344 343 344 342 341 341 342 342 342 341 341 343 344 343 342 339 334 335 338 339 335 331 330 329 323 320 319 319 319 319
343 344 344 343 344 344 345 346 346 346 346 346 347 347 348 349 349 350 350 351 351 352 352 352 352 352 353 353 353 353 352 352 350 348 346 346 345 343 342 342 343 341 341 341 342 344 343 341 338 334 333 336 339 336 330 331 330 322 319 319 318 318 319
343 344 344 344 344 345 345 345 346 346 347 347 348 348 349 349 350 350 351 351 351 352 353 353 353 353 353 354 354 354 353 352 352 351 349 348 347 345 343 342 342 342 341 341 341 343 343 340 337 335 334 336 338 336 331 331 331 325 320 319 318 319 319
343 344 344 344 344 344 346 345 346 346 347 348 348 349 349 350 351 350 351 351 351 352 353 353 354 354 354 354 354 354 354 353 353 352 352 350 348 346 344 342 342 342 341 341 341 342 342 340 337 336 337 337 338 337 332 331 333 331 325 320 318 318 319
343 343 343 344 344 345 346 345 346 346 347 348 349 349 350 350 351 351 351 352 352 353 354 354 355 355 355 355 355 356 355 354 353 353 353 352 349 346 344 343 343 343 342 341 341 341 341 339 337 337 338 339 339 338 336 334 335 334 331 327 322 319 319
343 343 343 344 344 345 345 345 346 347 347 348 348 349 350 350 351 352 352 353 353 354 355 355 356 356 356 356 356 357 356 355 353 353 352 351 349 346 344 344 344 342 341 341 341 341 341 340 338 337 338 338 338 338 337 337 337 337 336 335 330 324 319
342 343 343 344 345 345 345 345 346 347 348 348 348 350 350 350 352 352 353 354 354 355 356 356 357 357 357 357 357 358 357 356 354 352 351 350 349 346 345 344 344 342 341 341 340 340 341 340 338 337 337 338 338 338 338 338 339 339 339 339 337 332 325
343 344 343 344 345 345 345 345 346 347 348 349 349 350 350 351 352 352 353 355 355 356 357 357 358 359 358 358 358 358 358 357 355 351 349 347 347 346 345 345 344 343 342 341 341 341 340 339 338 336 337 338 339 339 339 339 340 340 340 339 339 337 332
342 342 343 344 343 344 345 345 345 346 347 348 349 349 350 351 351 352 353 354 355 356 357 357 358 359 359 359 359 359 358 357 355 352 348 346 346 347 347 345 344 344 343 343 343 341 339 338 337 337 338 338 339 340 340 341 340 339 339 339 339 338 338
339 340 342 343 343 344 345 344 346 346 347 347 348 348 350 351 351 352 353 354 355 356 357 357 358 359 360 360 359 359 358 357 356 354 351 348 347 347 347 345 344 344 345 346 344 342 341 339 339 339 339 338 339 341 342 342 341 340 339 339 339 339 339
337 339 341 341 342 343 343 344 345 345 346 346 346 347 349 350 351 352 353 354 355 356 357 358 357 359 359 359 359 359 359 358 357 356 354 352 349 346 345 345 344 345 346 347 346 344 343 342 341 340 339 337 339 341 342 342 341 340 340 341 341 341 341
339 340 339 340 342 342 343 343 344 345 346 345 344 346 347 349 351 352 353 354 354 355 356 357 358 358 359 358 358 358 359 359 358 357 356 354 350 347 345 344 344 346 347 348 348 347 346 345 343 340 338 338 340 341 341 340 339 339 341 342 343 344 344
341 340 339 340 340 342 342 343 344 346 346 345 343 345 346 348 350 351 353 354 354 355 356 357 358 358 358 358 358 358 359 359 358 358 357 355 353 349 347 346 346 347 349 349 349 348 348 347 344 341 339 340 341 342 341 339 338 339 342 344 345 345 345
342 339 340 340 340 342 343 342 344 346 345 344 344 344 345 347 349 351 352 352 354 355 356 357 358 358 358 358 358 358 358 358 358 358 357 356 354 352 350 349 349 350 351 351 349 348 348 346 344 343 343 343 343 342 342 340 340 342 344 345 346 346 347
342 341 341 341 342 342 342 343 344 345 345 344 343 342 342 344 346 348 350 352 355 356 357 358 358 357 358 358 358 357 357 358 358 358 358 357 355 354 353 351 351 351 352 352 351 349 347 346 345 345 344 344 343 344 343 342 343 344 346 347 348 348 348
344 344 341 341 342 342 343 343 343 344 345 343 341 340 340 343 346 348 350 354 356 357 357 357 357 358 358 358 358 357 357 357 358 358 358 357 357 356 355 353 353 353 353 353 353 350 347 345 345 345 344 344 345 345 345 344 345 347 348 349 350 350 350
346 346 343 340 340 340 342 344 343 344 343 341 341 341 342 343 345 348 352 355 356 356 357 357 357 357 358 358 358 358 357 357 358 358 359 358 358 356 355 354 354 353 354 354 353 351 350 348 346 346 345 345 347 347 346 347 350 351 351 351 352 351 350
341 343 344 344 344 343 342 343 343 343 343 342 342 342 342 344 345 348 353 355 356 357 357 357 358 357 357 358 358 357 357 358 358 359 359 358 358 356 355 354 353 353 354 355 354 353 352 350 349 348 348 349 349 348 349 352 353 353 353 353 353 352 351
332 332 333 334 339 342 342 342 343 342 342 343 343 343 343 344 345 349 352 354 355 356 357 357 358 357 357 357 358 358 358 358 358 358 358 358 357 356 355 355 353 353 353 354 354 353 351 350 351 351 352 352 352 352 353 354 355 355 355 354 353 352 351
334 333 331 330 332 335 337 340 341 341 343 346 344 342 343 344 345 348 349 350 351 353 355 356 355 356 356 356 357 359 359 359 359 358 358 357 356 355 355 355 354 353 353 353 353 352 352 352 354 354 354 354 355 356 356 356 356 355 355 355 353 352 350
339 335 335 334 334 334 334 335 336 336 341 345 345 343 343 344 346 347 347 347 348 350 352 352 352 353 354 355 357 359 359 360 359 359 358 357 356 355 355 355 355 354 354 353 354 354 354 355 355 356 356 356 357 357 357 357 356 356 355 353 351 350 349
347 344 341 338 336 336 335 336 335 334 336 340 342 342 342 344 348 349 350 350 352 351 347 346 348 351 354 356 357 358 360 360 359 359 358 357 357 356 355 356 356 355 355 355 355 356 356 357 357 358 358 358 357 357 357 356 356 354 353 352 350 350 348
349 349 347 342 338 335 335 336 336 335 336 339 343 345 345 348 350 349 348 351 353 351 347 346 348 351 354 357 358 358 359 359 359 359 359 358 358 358 356 356 357 356 356 357 357 357 357 358 359 358 359 358 358 357 356 356 354 353 351 351 349 347 346
344 348 350 348 344 339 336 335 334 335 335 337 341 343 342 346 350 351 350 351 350 346 344 345 346 351 356 357 358 358 358 357 358 358 359 359 358 358 358 358 358 358 359 358 358 358 359 359 359 359 359 358 357 357 356 354 353 352 350 348 344 342 342
347 350 352 351 350 347 344 340 334 333 335 335 338 342 342 344 348 352 356 357 354 352 351 348 348 353 357 357 356 357 357 356 356 357 358 359 358 358 359 359 359 360 360 359 359 359 359 360 360 359 359 358 357 356 355 353 351 349 347 344 341 340 341
347 347 350 352 353 352 351 349 345 343 344 342 343 348 353 354 353 355 359 360 360 360 359 358 357 357 356 356 356 355 355 355 355 356 358 359 359 359 360 360 360 361 361 361 361 361 361 361 360 359 359 358 357 355 352 350 348 347 345 342 341 340 340
347 347 349 353 356 355 353 352 352 352 353 355 356 358 361 361 359 358 359 359 359 360 360 360 360 359 358 357 355 354 354 355 357 359 360 360 360 360 360 360 361 361 361 363 363 362 362 361 360 360 358 357 355 352 350 348 346 345 344 342 341 340 339
349 348 348 350 354 356 355 354 353 352 352 354 357 360 362 362 362 362 360 359 359 359 358 359 360 360 361 359 357 356 356 357 358 361 362 362 362 362 362 362 362 362 363 364 363 363 363 361 359 358 356 354 352 350 348 347 345 344 343 342 341 340 339
351 352 353 354 355 356 356 356 355 355 354 353 354 356 357 359 360 362 361 361 361 360 360 360 360 360 362 362 362 361 360 361 362 363 364 364 364 364 364 364 364 364 364 364 363 362 360 358 357 355 352 351 350 348 346 345 344 343 341 341 340 340 339
350 351 354 356 356 357 357 356 356 356 355 354 354 355 355 355 356 356 357 357 357 359 360 360 360 362 364 365 365 365 365 365 364 364 364 365 365 365 365 365 365 364 362 361 359 357 354 354 353 352 350 349 347 344 342 342 342 341 340 340 340 339 339
348 347 348 349 351 354 354 354 355 355 354 354 356 356 357 358 358 358 357 357 355 356 359 362 365 366 366 366 366 364 364 364 365 365 365 366 366 366 365 363 361 359 356 354 353 352 351 350 350 349 348 346 343 341 340 340 340 340 340 340 340 339 338
349 348 347 346 346 346 346 346 349 351 353 355 355 354 355 356 355 355 359 362 361 362 364 363 363 364 366 365 361 357 356 358 360 363 364 364 364 364 362 358 355 352 350 348 348 349 349 348 346 346 344 342 340 340 340 340 340 340 340 340 340 339 338
349 350 349 348 348 347 346 346 347 347 348 349 348 346 347 350 350 350 356 359 360 362 363 357 352 353 355 354 352 353 353 351 351 353 357 357 357 357 356 353 350 348 347 346 346 347 346 344 343 342 341 341 341 341 341 340 340 340 340 339 338 338 337

ECMWFFLT1_850_thetae_033.txt.gz
Theta_e
339 341 341 342 344 344 344 344 344 344 344 345 344 344 345 346 347 348 348 348 348 348 348 348 348 348 348 349 348 348 348 348 348 347 346 343 339 336 335 336 337 337 338 341 342 342 341 342 343 342 341 340 339 338 338 334 331 331 332 330 325 323 325
339 340 340 341 343 343 344 344 344 344 344 344 345 344 345 346 347 347 347 347 348 348 348 348 348 348 348 348 348 349 349 348 348 348 346 344 341 339 336 335 336 338 338 339 340 341 342 342 342 342 341 341 338 337 337 333 329 331 332 330 324 321 323
338 339 340 340 342 343 343 344 344 344 344 344 345 345 345 346 346 347 347 347 348 348 349 349 348 348 348 348 349 348 349 349 348 348 346 344 342 340 338 336 335 337 338 339 340 341 342 341 342 342 341 341 339 337 336 334 329 329 331 331 326 321 320
338 339 340 340 341 342 343 344 344 344 345 344 345 345 345 346 346 347 346 347 348 348 349 349 348 349 348 348 349 349 349 349 349 348 346 343 340 339 339 337 336 336 338 340 340 341 341 342 342 342 342 341 339 337 337 334 330 328 330 330 327 323 320
339 339 340 340 340 341 342 343 343 344 344 344 345 345 345 346 346 347 347 348 348 348 348 348 348 349 349 348 349 349 348 349 349 349 347 345 342 340 339 338 336 336 338 340 341 341 342 342 342 342 342 342 341 338 337 336 332 329 330 330 328 325 322
340 340 340 340 340 341 342 343 343 344 344 344 345 345 345 347 347 347 348 348 348 348 348 349 349 349 349 349 349 349 349 349 349 349 348 346 343 341 338 337 337 337 338 339 340 341 342 342 342 342 342 341 340 338 337 336 334 331 330 330 328 325 323
340 341 341 340 340 341 341 342 343 343 344 344 345 345 346 347 347 348 348 348 349 349 349 350 349 350 350 350 350 349 349 349 349 349 349 348 346 342 338 337 337 337 338 339 341 341 342 342 341 342 342 341 339 337 336 337 336 333 330 329 328 325 323
340 341 341 341 341 341 341 341 342 343 343 344 345 346 346 347 348 348 348 349 349 349 350 349 350 350 350 350 350 350 349 350 349 349 349 349 348 345 341 338 337 337 338 339 340 341 341 341 341 341 341 341 339 337 335 336 337 336 332 330 328 324 321
340 341 341 341 341 341 342 341 342 343 343 344 345 346 346 347 348 348 348 349 349 350 349 349 350 350 350 350 350 350 350 350 350 350 350 349 348 346 342 338 338 338 338 339 340 341 341 341 341 340 341 342 341 339 336 335 337 338 335 331 329 324 320
341 340 340 341 341 342 342 342 342 343 342 344 344 345 346 346 347 348 348 349 349 349 349 350 351 351 351 351 350 350 350 350 350 350 351 350 349 346 342 339 338 338 338 339 339 340 341 342 342 341 341 342 342 341 338 334 335 338 337 333 331 327 322
340 340 340 341 341 342 342 342 343 343 343 343 344 344 345 346 347 347 348 349 348 348 349 350 351 352 352 351 350 351 351 350 351 351 351 351 350 347 344 341 340 338 338 339 339 340 341 342 343 342 341 341 342 342 339 335 334 336 337 335 332 330 326
338 340 340 341 342 341 341 342 343 343 344 343 344 344 345 345 346 347 347 348 348 348 349 350 351 352 352 351 351 351 351 351 351 351 352 351 350 349 347 344 342 340 338 338 339 339 340 341 342 343 341 341 341 343 341 338 335 335 336 336 334 332 331
339 340 340 341 342 342 342 342 342 343 344 344 344 344 344 345 345 346 347 347 348 348 349 350 351 351 352 352 351 351 351 351 351 351 352 352 352 351 350 347 345 341 339 338 338 338 339 340 341 342 341 341 341 343 343 341 338 337 338 338 336 334 333
338 339 339 340 341 342 342 342 342 343 343 344 344 345 344 345 345 346 346 347 347 349 350 350 351 351 352 352 352 352 351 351 351 352 353 353 353 352 351 350 347 344 341 339 338 338 338 339 340 341 342 342 342 342 343 343 340 339 339 339 339 337 336
336 337 339 339 340 342 342 342 343 343 343 344 344 345 345 345 346 346 347 347 348 349 350 350 350 351 351 351 352 351 351 351 352 352 353 353 354 353 352 352 350 347 345 342 338 337 338 339 340 341 342 342 342 343 343 343 341 339 339 339 340 339 338
335 336 338 339 340 341 342 343 343 343 343 344 344 344 346 346 347 347 347 348 349 349 350 350 350 351 351 351 351 351 351 352 352 353 353 354 354 354 354 353 352 350 348 344 339 337 337 338 340 341 342 342 342 343 342 342 341 340 339 340 342 341 341
335 336 337 339 340 340 341 343 343 343 344 344 344 345 346 346 347 347 347 348 349 349 350 351 351 351 351 350 350 351 352 353 353 354 354 354 354 355 355 354 353 352 350 347 344 340 338 338 339 340 341 342 342 343 342 341 340 340 340 341 343 344 343
335 336 337 339 340 341 341 342 342 343 343 343 344 345 345 346 346 347 348 348 349 350 351 351 352 351 351 351 352 353 354 354 354 355 355 355 355 355 356 356 355 353 352 351 347 343 340 338 338 338 339 342 343 343 342 341 340 341 342 343 344 345 345
336 336 338 339 340 340 342 342 342 343 343 343 344 344 345 346 346 346 347 347 348 350 351 352 352 352 352 353 353 354 355 355 355 355 355 355 356 356 357 357 356 354 353 351 350 347 343 339 337 337 338 341 342 342 341 341 342 342 343 344 345 346 346
335 337 337 338 341 341 341 342 342 342 343 343 343 344 345 346 346 346 346 348 350 351 351 352 352 353 353 354 354 355 355 356 356 355 356 356 356 357 357 357 357 355 354 353 352 350 344 339 337 336 337 339 340 340 341 341 343 344 344 346 346 346 346
334 337 337 337 339 340 341 342 342 342 343 343 343 344 344 345 346 347 347 349 350 351 351 352 352 353 354 354 355 355 355 356 356 356 356 357 358 358 358 358 357 356 355 355 353 349 344 340 338 336 336 338 338 340 341 342 344 345 345 346 346 346 346
336 338 339 339 338 338 339 341 341 342 343 343 343 344 344 345 346 347 347 349 350 351 351 352 352 353 354 355 356 356 356 356 356 356 357 358 359 359 358 358 358 357 356 355 353 350 347 344 341 338 338 337 338 340 341 343 345 346 346 347 347 346 347
338 339 339 336 337 338 338 337 339 340 340 341 343 343 344 345 345 346 346 348 349 350 350 351 352 352 353 354 355 356 356 356 356 356 358 359 359 359 358 358 358 357 357 356 354 352 349 346 344 342 340 339 340 340 342 345 347 347 347 348 348 348 349
334 338 338 336 338 339 336 335 336 337 338 339 341 341 343 344 345 345 347 347 349 349 350 351 352 352 352 353 353 354 355 355 355 356 357 359 359 359 359 358 358 357 357 356 355 352 349 347 345 344 341 341 340 340 343 347 347 346 347 348 348 349 350
334 336 339 339 340 339 337 338 338 337 340 341 341 342 343 344 345 346 347 348 348 349 350 350 350 350 351 351 351 353 353 355 356 356 357 358 359 358 359 358 358 357 357 357 356 354 351 349 348 346 343 342 341 342 345 347 347 346 348 349 349 351 352
337 335 335 334 332 333 337 342 342 341 340 340 340 342 343 344 345 346 346 347 348 349 349 347 347 347 348 348 350 352 353 355 357 356 356 357 357 358 358 358 358 358 358 357 357 356 354 352 350 348 346 344 343 344 345 346 346 347 349 350 352 353 354
344 341 340 336 333 332 334 338 342 344 342 341 341 342 343 344 345 345 346 347 348 348 346 343 342 344 345 347 351 353 355 356 357 357 356 355 356 357 357 358 358 358 358 358 357 357 356 353 352 351 349 347 346 346 346 347 347 349 351 353 354 355 355
347 343 341 338 336 335 334 334 338 341 342 344 344 345 345 345 345 344 345 346 345 344 341 340 341 342 344 348 352 354 356 357 357 358 358 356 356 357 358 357 358 358 358 358 358 358 356 355 354 353 352 350 349 349 349 349 350 352 353 355 356 357 356
346 342 339 338 339 338 336 336 336 336 338 339 340 343 346 347 347 346 345 345 344 344 344 343 343 346 349 352 353 355 356 356 357 358 358 359 358 357 358 358 358 359 359 359 359 358 357 356 356 355 353 352 352 352 352 352 353 354 356 357 357 356 355
348 348 345 344 344 340 336 337 337 336 336 335 335 337 340 344 348 349 348 347 346 346 347 347 347 350 352 353 354 355 355 356 357 357 358 359 359 358 358 359 359 359 360 359 359 359 358 357 356 355 355 354 354 354 355 355 356 357 357 357 356 354 353
347 348 349 348 348 345 341 340 340 338 336 335 335 335 338 341 346 350 351 351 350 349 349 349 350 351 353 353 355 356 356 356 356 357 357 359 359 360 359 359 360 360 360 360 359 359 358 358 357 356 356 355 355 355 356 357 358 358 357 355 354 353 351
346 346 347 349 352 353 352 349 347 345 342 339 336 335 337 341 346 350 351 351 352 353 352 352 353 353 352 353 354 354 355 356 356 356 356 357 359 360 360 360 360 360 360 360 360 359 359 358 358 357 357 357 357 357 357 358 358 357 355 353 353 351 348
349 349 348 349 351 353 353 354 354 352 350 349 348 345 344 346 350 352 353 353 353 354 354 356 357 357 356 355 354 353 354 354 354 355 355 356 358 359 360 361 361 360 360 360 359 359 359 358 358 358 357 358 358 358 358 358 356 355 354 353 352 349 344
349 350 351 352 353 353 354 355 354 354 353 352 352 352 352 354 355 357 357 358 358 358 358 358 358 358 359 358 357 356 356 355 355 355 356 356 357 358 360 361 361 360 361 360 360 359 359 358 358 358 357 358 358 358 357 356 355 355 354 352 349 345 342
348 349 349 351 352 353 354 354 354 355 355 354 353 353 352 353 355 355 357 358 359 359 360 360 360 360 360 360 360 359 358 357 357 356 356 355 356 357 359 360 361 361 361 359 360 360 358 358 358 356 355 356 357 356 356 356 356 355 352 349 345 342 340
347 347 347 347 347 349 349 351 352 354 355 356 356 356 355 353 353 353 353 354 355 356 357 357 357 357 358 359 360 360 359 359 358 357 356 355 355 356 359 360 361 361 361 359 360 360 360 359 357 354 354 356 355 354 355 355 355 352 348 344 342 341 341
348 347 347 346 346 347 346 347 349 350 351 353 354 356 357 357 356 355 355 354 353 352 353 356 358 357 357 360 361 362 361 360 360 358 357 355 355 356 358 360 361 361 361 360 359 359 359 358 356 356 356 355 355 354 353 353 350 347 343 342 341 340 340
348 348 348 347 348 348 347 347 347 347 347 347 348 350 352 352 351 351 350 348 348 349 353 358 361 361 360 360 361 362 362 362 360 360 358 358 359 358 358 359 360 360 358 358 358 359 358 357 357 357 356 355 354 353 350 347 344 343 341 340 340 339 339